When you browse on this site, cookies collect data to enhance your experience and personalize the content and advertising you see.
Visit our Privacy Policy to learn more. By continuing to use the site, you agree to this use of cookies and data.
  • In Spain
  • List of Countries
  • For 7 days
  • Water Temperature
  • Satellite Maps
  • Weather Map
  • Weather Widgets
  • user-avatar
    Login

    Hourly Weather Medina

    Today, 19 December, Wednesday

    Time Temperature Precipitation Wind Pressure Humidity
    00:00 +22°C° 0 mm 3 mps 693 mmHg 43%
    01:00 +21°C° 0 mm 2 mps 693 mmHg 46%
    02:00 +21°C° 0 mm 2 mps 693 mmHg 49%
    03:00 +20°C° 0 mm 2 mps 693 mmHg 54%
    04:00 +19°C° 0 mm 2 mps 693 mmHg 56%
    05:00 +19°C° 0 mm 2 mps 693 mmHg 57%
    06:00 +18°C° 0 mm 2 mps 693 mmHg 59%
    07:00 +19°C° 0 mm 2 mps 693 mmHg 55%
    08:00 +20°C° 0 mm 2 mps 693 mmHg 51%
    09:00 +21°C° 0 mm 2 mps 694 mmHg 44%
    10:00 +24°C° 0 mm 3 mps 694 mmHg 38%
    11:00 +26°C° 0 mm 3 mps 694 mmHg 31%
    12:00 +28°C° 0 mm 3 mps 694 mmHg 25%
    13:00 +28°C° 0 mm 4 mps 693 mmHg 25%
    14:00 +29°C° 0 mm 4 mps 693 mmHg 24%
    15:00 +30°C° 0 mm 4 mps 693 mmHg 24%
    16:00 +29°C° 0 mm 4 mps 693 mmHg 27%
    17:00 +28°C° 0 mm 4 mps 693 mmHg 29%
    18:00 +27°C° 0 mm 3 mps 693 mmHg 32%
    19:00 +26°C° 0 mm 3 mps 693 mmHg 34%
    20:00 +25°C° 0 mm 3 mps 693 mmHg 36%
    21:00 +25°C° 0 mm 2 mps 693 mmHg 39%
    22:00 +24°C° 0 mm 2 mps 693 mmHg 41%
    23:00 +24°C° 0 mm 2 mps 693 mmHg 43%

    Tomorrow, 20 December, Thursday

    Time Temperature Precipitation Wind Pressure Humidity
    00:00 +23°C° 0 mm 2 mps 693 mmHg 44%
    01:00 +23°C° 0 mm 1 mps 693 mmHg 47%
    02:00 +22°C° 0 mm 1 mps 693 mmHg 49%
    03:00 +22°C° 0 mm 1 mps 693 mmHg 52%
    04:00 +21°C° 0 mm 1 mps 693 mmHg 54%
    05:00 +21°C° 0 mm 1 mps 693 mmHg 56%
    06:00 +20°C° 0 mm 1 mps 693 mmHg 58%
    07:00 +21°C° 0 mm 1 mps 693 mmHg 56%
    08:00 +22°C° 0 mm 1 mps 693 mmHg 53%
    09:00 +23°C° 0 mm 1 mps 694 mmHg 51%
    10:00 +24°C° 0 mm 2 mps 694 mmHg 46%
    11:00 +25°C° 0 mm 2 mps 694 mmHg 42%
    12:00 +26°C° 0 mm 2 mps 694 mmHg 37%
    13:00 +27°C° 0 mm 3 mps 694 mmHg 34%
    14:00 +27°C° 0 mm 3 mps 693 mmHg 31%
    15:00 +28°C° 0 mm 3 mps 693 mmHg 28%
    16:00 +27°C° 0 mm 3 mps 693 mmHg 29%
    17:00 +26°C° 0 mm 3 mps 693 mmHg 30%
    18:00 +26°C° 0 mm 3 mps 693 mmHg 30%
    19:00 +25°C° 0 mm 2 mps 693 mmHg 31%
    20:00 +24°C° 0 mm 2 mps 694 mmHg 32%
    21:00 +23°C° 0 mm 2 mps 694 mmHg 33%
    22:00 +22°C° 0 mm 1 mps 694 mmHg 33%
    23:00 +22°C° 0 mm 1 mps 694 mmHg 33%

    Day after tomorrow, 21 December, Friday

    Time Temperature Precipitation Wind Pressure Humidity
    00:00 +21°C° 0 mm 1 mps 693 mmHg 33%
    01:00 +20°C° 0 mm 1 mps 693 mmHg 32%
    02:00 +20°C° 0 mm 1 mps 693 mmHg 32%
    03:00 +18°C° 0 mm 2 mps 693 mmHg 31%
    04:00 +18°C° 0 mm 2 mps 693 mmHg 31%
    05:00 +17°C° 0 mm 2 mps 693 mmHg 31%
    06:00 +17°C° 0 mm 2 mps 693 mmHg 30%
    07:00 +17°C° 0 mm 3 mps 693 mmHg 30%
    08:00 +18°C° 0 mm 3 mps 694 mmHg 30%
    09:00 +18°C° 0 mm 4 mps 694 mmHg 30%
    10:00 +19°C° 0 mm 4 mps 694 mmHg 29%
    11:00 +20°C° 0 mm 4 mps 694 mmHg 27%
    12:00 +22°C° 0 mm 4 mps 694 mmHg 26%
    13:00 +22°C° 0 mm 3 mps 694 mmHg 26%
    14:00 +24°C° 0 mm 3 mps 693 mmHg 25%
    15:00 +25°C° 0 mm 2 mps 692 mmHg 24%
    16:00 +24°C° 0 mm 2 mps 692 mmHg 25%
    17:00 +24°C° 0 mm 2 mps 692 mmHg 26%
    18:00 +24°C° 0 mm 2 mps 692 mmHg 27%
    19:00 +23°C° 0 mm 2 mps 693 mmHg 28%
    20:00 +21°C° 0 mm 3 mps 693 mmHg 29%
    21:00 +21°C° 0 mm 3 mps 693 mmHg 30%
    22:00 +20°C° 0 mm 3 mps 693 mmHg 30%
    23:00 +20°C° 0 mm 3 mps 693 mmHg 31%

    22 December, Saturday

    Time Temperature Precipitation Wind Pressure Humidity
    00:00 +19°C° 0 mm 3 mps 693 mmHg 32%
    01:00 +18°C° 0 mm 3 mps 692 mmHg 33%
    02:00 +18°C° 0 mm 3 mps 692 mmHg 33%
    03:00 +17°C° 0 mm 3 mps 692 mmHg 34%
    04:00 +16°C° 0 mm 3 mps 692 mmHg 35%
    05:00 +16°C° 0 mm 3 mps 692 mmHg 37%
    06:00 +14°C° 0 mm 3 mps 692 mmHg 38%
    07:00 +15°C° 0 mm 4 mps 693 mmHg 37%
    08:00 +15°C° 0 mm 5 mps 693 mmHg 37%
    09:00 +15°C° 0 mm 5 mps 694 mmHg 36%
    10:00 +17°C° 0 mm 5 mps 694 mmHg 33%
    11:00 +19°C° 0 mm 5 mps 694 mmHg 30%
    12:00 +20°C° 0 mm 5 mps 694 mmHg 28%
    13:00 +21°C° 0 mm 5 mps 693 mmHg 26%
    14:00 +22°C° 0 mm 5 mps 692 mmHg 24%
    15:00 +23°C° 0 mm 4 mps 692 mmHg 23%
    16:00 +23°C° 0 mm 4 mps 692 mmHg 23%
    17:00 +22°C° 0 mm 3 mps 692 mmHg 24%
    18:00 +22°C° 0 mm 3 mps 692 mmHg 24%
    19:00 +21°C° 0 mm 3 mps 692 mmHg 25%
    20:00 +21°C° 0 mm 3 mps 692 mmHg 27%
    21:00 +20°C° 0 mm 3 mps 693 mmHg 28%
    22:00 +19°C° 0 mm 3 mps 693 mmHg 29%
    23:00 +19°C° 0 mm 3 mps 692 mmHg 31%

    23 December, Sunday

    Time Temperature Precipitation Wind Pressure Humidity
    00:00 +18°C° 0 mm 2 mps 692 mmHg 32%
    01:00 +17°C° 0 mm 2 mps 692 mmHg 34%
    02:00 +17°C° 0 mm 2 mps 692 mmHg 35%
    03:00 +16°C° 0 mm 2 mps 691 mmHg 36%
    04:00 +16°C° 0 mm 2 mps 691 mmHg 37%
    05:00 +15°C° 0 mm 2 mps 691 mmHg 38%
    06:00 +15°C° 0 mm 2 mps 691 mmHg 39%
    07:00 +16°C° 0 mm 2 mps 692 mmHg 37%
    08:00 +16°C° 0 mm 2 mps 692 mmHg 35%
    09:00 +17°C° 0 mm 3 mps 693 mmHg 33%
    10:00 +19°C° 0 mm 3 mps 693 mmHg 31%
    11:00 +20°C° 0 mm 2 mps 693 mmHg 30%
    12:00 +23°C° 0 mm 2 mps 693 mmHg 28%
    13:00 +23°C° 0 mm 2 mps 693 mmHg 27%
    14:00 +24°C° 0 mm 1 mps 692 mmHg 25%
    15:00 +25°C° 0 mm 1 mps 692 mmHg 24%
    16:00 +25°C° 0 mm 1 mps 692 mmHg 25%
    17:00 +24°C° 0 mm 1 mps 692 mmHg 26%
    18:00 +24°C° 0 mm 1 mps 692 mmHg 27%
    19:00 +23°C° 0 mm 1 mps 692 mmHg 28%
    20:00 +23°C° 0 mm 1 mps 693 mmHg 30%
    21:00 +22°C° 0 mm 1 mps 693 mmHg 31%
    22:00 +22°C° 0 mm 1 mps 693 mmHg 32%
    23:00 +21°C° 0 mm 1 mps 693 mmHg 33%

    24 December, Monday

    Time Temperature Precipitation Wind Pressure Humidity
    00:00 +21°C° 0 mm 1 mps 692 mmHg 34%
    01:00 +20°C° 0 mm 1 mps 692 mmHg 35%
    02:00 +20°C° 0 mm 1 mps 692 mmHg 36%
    03:00 +18°C° 0 mm 2 mps 692 mmHg 37%
    04:00 +18°C° 0 mm 2 mps 692 mmHg 38%
    05:00 +17°C° 0 mm 2 mps 692 mmHg 39%
    06:00 +17°C° 0 mm 2 mps 692 mmHg 41%
    07:00 +17°C° 0 mm 2 mps 692 mmHg 39%
    08:00 +18°C° 0 mm 2 mps 693 mmHg 37%
    09:00 +19°C° 0 mm 2 mps 693 mmHg 35%
    10:00 +20°C° 0 mm 2 mps 693 mmHg 33%
    11:00 +23°C° 0 mm 2 mps 693 mmHg 30%
    12:00 +24°C° 0 mm 2 mps 693 mmHg 28%
    13:00 +25°C° 0 mm 1 mps 693 mmHg 26%
    14:00 +26°C° 0 mm 1 mps 692 mmHg 25%
    15:00 +24°C° 0 mm 0 mps 692 mmHg 24%
    16:00 +26°C° 0 mm 1 mps 692 mmHg 24%
    17:00 +26°C° 0 mm 1 mps 692 mmHg 25%
    18:00 +25°C° 0 mm 1 mps 692 mmHg 26%
    19:00 +24°C° 0 mm 1 mps 692 mmHg 28%
    20:00 +24°C° 0 mm 1 mps 693 mmHg 29%
    21:00 +23°C° 0 mm 1 mps 693 mmHg 30%
    22:00 +22°C° 0 mm 1 mps 693 mmHg 31%
    23:00 +22°C° 0 mm 1 mps 693 mmHg 32%
    Show more